Location: ??
(34.9170°N, 135.5016°E)
Time: 23:58:36
(UTC+00:00)

RS-15 - Pass Details

Date: 27 April 2021
Orbit: 1888 x 2157 km, 64.8° (Epoch: 12 May)

Event Time Altitude Azimuth Distance (km) Brightness Sun altitude
Rises 13:02:21 0° 311° (NW) 5,425 11.3 -34.2°
Reaches altitude 10° 13:09:09 10° 339° (NNW) 4,494 10.7 -34.9°
Maximum altitude 13:13:39 13° 3° (N) 4,324 10.4 -35.4°
Drops below altitude 10° 13:18:12 10° 26° (NNE) 4,578 10.3 -35.9°
Sets 13:25:19 0° 54° (NE) 5,634 10.5 -36.6°
